HP2BWJ-13 Weather Reports


Display with metric or nautical units.
time (UTC)temp
F
wind
direction
speed
MPH
gust
MPH
rain 1hr
in
rain 24hr
in
rain mn
in
humidity
%
barometer
mb
20260507111440 75 49 5.0 7.0 0.00 0.00 0.00 91 1011.0
20260507111340 75 49 5.0 7.0 0.00 0.00 0.00 91 1011.0
20260507105439 76 49 5.0 7.0 0.00 0.00 0.00 91 1010.0
20260507105339 76 49 5.0 7.0 0.00 0.00 0.00 91 1010.0
20260507103438 77 49 5.0 7.0 0.00 0.00 0.00 91 1010.0
20260507103338 77 49 5.0 7.0 0.00 0.00 0.00 91 1010.0
20260507101437 78 49 5.0 7.0 0.00 0.00 0.00 91 1011.0
20260507101337 78 49 5.0 7.0 0.00 0.00 0.00 91 1011.0
20260507095436 73 55 5.0 7.0 0.00 0.00 0.00 92 1010.0
20260507095336 73 55 5.0 7.0 0.00 0.00 0.00 92 1010.0
20260507093436 74 55 5.0 7.0 0.00 0.00 0.00 92 1010.0
20260507093335 74 55 5.0 7.0 0.00 0.00 0.00 92 1010.0
20260507091434 75 55 5.0 7.0 0.00 0.00 0.00 92 1011.0
20260507091335 75 55 5.0 7.0 0.00 0.00 0.00 92 1011.0
20260507085434 76 55 5.0 7.0 0.00 0.00 0.00 92 1010.0
20260507085333 76 55 5.0 7.0 0.00 0.00 0.00 92 1010.0
20260507083433 77 55 5.0 7.0 0.00 0.00 0.00 92 1010.0
20260507083333 77 55 5.0 7.0 0.00 0.00 0.00 92 1010.0
20260507081432 78 55 5.0 7.0 0.00 0.00 0.00 92 1011.0
20260507081331 78 55 5.0 7.0 0.00 0.00 0.00 92 1011.0
20260507075431 73 59 4.0 5.0 0.00 0.00 0.00 86 1010.0
20260507075331 73 59 4.0 5.0 0.00 0.00 0.00 86 1010.0
20260507073430 74 59 4.0 5.0 0.00 0.00 0.00 86 1010.0
20260507073330 74 59 4.0 5.0 0.00 0.00 0.00 86 1010.0
20260507071429 75 59 4.0 5.0 0.00 0.00 0.00 86 1012.0
20260507071329 75 59 4.0 5.0 0.00 0.00 0.00 86 1012.0
20260507065428 76 59 4.0 5.0 0.00 0.00 0.00 86 1011.0
20260507065328 76 59 4.0 5.0 0.00 0.00 0.00 86 1011.0
20260507063427 77 59 4.0 5.0 0.00 0.00 0.00 86 1011.0
20260507063327 77 59 4.0 5.0 0.00 0.00 0.00 86 1011.0
20260507061426 78 59 4.0 5.0 0.00 0.00 0.00 86 1012.0
20260507061326 78 59 4.0 5.0 0.00 0.00 0.00 86 1012.0
20260507055425 73 50 5.0 7.0 0.00 0.00 0.00 88 1011.0
20260507055325 73 50 5.0 7.0 0.00 0.00 0.00 88 1011.0
20260507053424 74 50 5.0 7.0 0.00 0.00 0.00 88 1011.0
20260507053324 74 50 5.0 7.0 0.00 0.00 0.00 88 1011.0
20260507051423 75 50 5.0 7.0 0.00 0.00 0.00 88 1013.0
20260507051323 75 50 5.0 7.0 0.00 0.00 0.00 88 1013.0
20260507045422 76 50 5.0 7.0 0.00 0.00 0.00 88 1012.0
20260507045322 76 50 5.0 7.0 0.00 0.00 0.00 88 1012.0
20260507043421 77 50 5.0 7.0 0.00 0.00 0.00 88 1012.0
20260507043321 77 50 5.0 7.0 0.00 0.00 0.00 88 1012.0
20260507041420 78 50 5.0 7.0 0.00 0.00 0.00 88 1013.0
20260507041320 78 50 5.0 7.0 0.00 0.00 0.00 88 1013.0
20260507035419 74 49 5.0 7.0 0.00 0.00 0.00 89 1012.0
20260507035319 74 49 5.0 7.0 0.00 0.00 0.00 89 1012.0
20260507033418 75 49 5.0 7.0 0.00 0.00 0.00 89 1012.0
20260507033318 75 49 5.0 7.0 0.00 0.00 0.00 89 1012.0
20260507031417 76 49 5.0 7.0 0.00 0.00 0.00 89 1012.0
20260507031317 76 49 5.0 7.0 0.00 0.00 0.00 89 1012.0
20260507025416 77 49 5.0 7.0 0.00 0.00 0.00 89 1012.0
20260507025316 77 49 5.0 7.0 0.00 0.00 0.00 89 1012.0
20260507023413 78 49 5.0 7.0 0.00 0.00 0.00 89 1012.0
20260507023312 78 49 5.0 7.0 0.00 0.00 0.00 89 1012.0
20260507021412 74 41 7.0 11.0 0.00 0.00 0.00 87 1012.0
20260507021312 74 41 7.0 11.0 0.00 0.00 0.00 87 1012.0
20260507015411 75 41 7.0 11.0 0.00 0.00 0.00 87 1011.0
20260507015310 75 41 7.0 11.0 0.00 0.00 0.00 87 1011.0
20260507013409 76 41 7.0 11.0 0.00 0.00 0.00 87 1011.0
20260507013309 76 41 7.0 11.0 0.00 0.00 0.00 87 1011.0
20260507011408 77 41 7.0 11.0 0.00 0.00 0.00 87 1011.0
20260507011308 77 41 7.0 11.0 0.00 0.00 0.00 87 1011.0
20260507005407 78 41 7.0 11.0 0.00 0.00 0.00 87 1010.0
20260507005307 78 41 7.0 11.0 0.00 0.00 0.00 87 1010.0
20260507003406 74 31 8.0 14.0 0.00 0.00 0.00 85 1010.0
20260507003306 74 31 8.0 14.0 0.00 0.00 0.00 85 1010.0
20260507001405 75 31 8.0 14.0 0.00 0.00 0.00 85 1010.0
20260507001305 75 31 8.0 14.0 0.00 0.00 0.00 85 1010.0
20260506235404 76 31 8.0 14.0 0.00 0.00 0.00 85 1010.0
20260506235306 76 31 8.0 14.0 0.00 0.00 0.00 85 1010.0
20260506233402 77 31 8.0 14.0 0.00 0.00 0.00 85 1010.0
20260506233302 77 31 8.0 14.0 0.00 0.00 0.00 85 1010.0
20260506231401 78 31 8.0 14.0 0.00 0.00 0.00 85 1009.0
20260506231301 78 31 8.0 14.0 0.00 0.00 0.00 85 1009.0
20260506225400 75 9 7.0 10.0 0.00 0.00 0.00 69 1009.0
20260506225300 75 9 7.0 10.0 0.00 0.00 0.00 69 1009.0
20260506223359 76 9 7.0 10.0 0.00 0.00 0.00 69 1009.0
20260506223259 76 9 7.0 10.0 0.00 0.00 0.00 69 1009.0
20260506221358 77 9 7.0 10.0 0.00 0.00 0.00 69 1009.0
20260506221258 77 9 7.0 10.0 0.00 0.00 0.00 69 1009.0
20260506215357 78 9 7.0 10.0 0.00 0.00 0.00 69 1009.0
20260506215257 78 9 7.0 10.0 0.00 0.00 0.00 69 1009.0
20260506213356 79 9 7.0 10.0 0.00 0.00 0.00 69 1009.0
20260506213256 79 9 7.0 10.0 0.00 0.00 0.00 69 1009.0
20260506211355 80 9 7.0 10.0 0.00 0.00 0.00 69 1010.0
20260506211255 80 9 7.0 10.0 0.00 0.00 0.00 69 1010.0
20260506205354 81 9 7.0 10.0 0.00 0.00 0.00 69 1009.0
20260506205254 81 9 7.0 10.0 0.00 0.00 0.00 69 1009.0
20260506203353 82 9 7.0 10.0 0.00 0.00 0.00 69 1009.0
20260506203253 82 9 7.0 10.0 0.00 0.00 0.00 69 1009.0
20260506201351 83 9 7.0 10.0 0.00 0.00 0.00 69 1010.0
20260506201251 83 9 7.0 10.0 0.00 0.00 0.00 69 1010.0
20260506195350 84 9 7.0 10.0 0.00 0.00 0.00 69 1009.0
20260506195249 84 9 7.0 10.0 0.00 0.00 0.00 69 1009.0
20260506193349 85 9 7.0 10.0 0.00 0.00 0.00 69 1009.0
20260506193248 85 9 7.0 10.0 0.00 0.00 0.00 69 1009.0
20260506191348 86 9 7.0 10.0 0.01 0.00 0.00 69 1010.0
20260506191248 86 9 7.0 10.0 0.01 0.00 0.00 69 1010.0
20260506185347 87 9 7.0 10.0 0.00 0.00 0.00 69 1010.0
20260506185246 87 9 7.0 10.0 0.00 0.00 0.00 69 1010.0
20260506183346 88 9 7.0 10.0 0.01 0.00 0.00 69 1010.0
20260506183246 88 9 7.0 10.0 0.01 0.00 0.00 69 1010.0
20260506181345 89 9 7.0 10.0 0.00 0.00 0.00 69 1011.0
20260506181245 89 9 7.0 10.0 0.00 0.00 0.00 69 1011.0
20260506175344 79 10 7.0 10.0 0.00 0.00 0.00 76 1011.0
20260506175244 79 10 7.0 10.0 0.00 0.00 0.00 76 1011.0
20260506173343 80 10 7.0 10.0 0.00 0.00 0.00 76 1011.0
20260506173242 80 10 7.0 10.0 0.00 0.00 0.00 76 1011.0
20260506171342 81 10 7.0 10.0 0.00 0.00 0.00 76 1012.0
20260506171242 81 10 7.0 10.0 0.00 0.00 0.00 76 1012.0
20260506165341 82 10 7.0 10.0 0.00 0.00 0.00 76 1011.0
20260506165241 82 10 7.0 10.0 0.00 0.00 0.00 76 1011.0
20260506163340 83 10 7.0 10.0 0.00 0.00 0.00 76 1011.0
20260506163240 83 10 7.0 10.0 0.00 0.00 0.00 76 1011.0
20260506161338 84 10 7.0 10.0 0.00 0.00 0.00 76 1012.0
20260506161238 84 10 7.0 10.0 0.00 0.00 0.00 76 1012.0
20260506155338 85 10 7.0 10.0 0.00 0.00 0.00 76 1012.0
20260506155237 85 10 7.0 10.0 0.00 0.00 0.00 76 1012.0
20260506153337 86 10 7.0 10.0 0.00 0.00 0.00 76 1012.0
20260506153237 86 10 7.0 10.0 0.00 0.00 0.00 76 1012.0
20260506151336 87 10 7.0 10.0 0.00 0.00 0.00 76 1013.0
20260506151236 87 10 7.0 10.0 0.00 0.00 0.00 76 1013.0
20260506145335 88 10 7.0 10.0 0.00 0.00 0.00 76 1012.0
20260506145235 88 10 7.0 10.0 0.00 0.00 0.00 76 1012.0
20260506143334 77 22 5.0 8.0 0.00 0.00 0.00 78 1012.0
20260506143234 77 22 5.0 8.0 0.00 0.00 0.00 78 1012.0
20260506141334 78 22 6.0 9.0 0.00 0.00 0.00 78 1013.0
20260506141233 78 22 6.0 9.0 0.00 0.00 0.00 78 1013.0
20260506135332 77 22 5.0 8.0 0.00 0.00 0.00 82 1012.0
20260506135232 77 22 5.0 8.0 0.00 0.00 0.00 82 1012.0
20260506133332 78 22 6.0 9.0 0.00 0.00 0.00 82 1012.0
20260506133231 78 22 6.0 9.0 0.00 0.00 0.00 82 1012.0
20260506131330 75 50 5.0 7.0 0.00 0.00 0.00 91 1013.0
20260506131230 75 50 5.0 7.0 0.00 0.00 0.00 91 1013.0
20260506125329 76 50 5.0 7.0 0.00 0.00 0.00 91 1012.0
20260506125229 76 50 5.0 7.0 0.00 0.00 0.00 91 1012.0
20260506123328 77 50 5.0 7.0 0.00 0.00 0.00 91 1012.0
20260506123228 77 50 5.0 7.0 0.00 0.00 0.00 91 1012.0
20260506121328 78 50 5.0 7.0 0.00 0.00 0.00 91 1012.0
20260506121227 78 50 5.0 7.0 0.00 0.00 0.00 91 1012.0
20260506115327 74 47 5.0 7.0 0.00 0.00 0.00 91 1011.0
20260506115226 74 47 5.0 7.0 0.00 0.00 0.00 91 1011.0
20260506113325 75 47 5.0 7.0 0.00 0.00 0.00 91 1011.0
20260506113225 75 47 5.0 7.0 0.00 0.00 0.00 91 1011.0